RYR5573 LFML-LSGG

Flight info

Callsign RYR5573
Flight time N/A
Altitude 28000
Route LFML MTL B16 BELUS LSGG
Aircraft B738/M-V/N

Departure

Time 2026-05-07 13:59
Airport Marseille Provence Airport (LFML)

Arrival

Time N/A
Airport Geneva International Airport (LSGG)
Time Latitude Longitude Altitude Speed Heading
2026-05-07 13:27 43.44007 5.21880 24 ft 0 kts 314°
2026-05-07 13:45 43.44004 5.21883 23 ft 2 kts 314°
2026-05-07 13:45 43.43995 5.21897 24 ft 1 kts 314°
2026-05-07 13:45 43.43988 5.21907 24 ft 2 kts 308°
2026-05-07 13:46 43.43982 5.21925 25 ft 2 kts 283°
2026-05-07 13:46 43.43980 5.21945 25 ft 2 kts 264°
2026-05-07 13:46 43.43984 5.21964 25 ft 2 kts 243°
2026-05-07 13:46 43.43990 5.21979 26 ft 0 kts 226°
2026-05-07 13:47 43.43995 5.21985 26 ft 1 kts 223°
2026-05-07 13:47 43.43996 5.21986 26 ft 0 kts 223°
2026-05-07 13:52 43.43993 5.21982 26 ft 2 kts 223°
2026-05-07 13:53 43.43973 5.21956 25 ft 5 kts 224°
2026-05-07 13:53 43.43937 5.21908 25 ft 9 kts 224°
2026-05-07 13:53 43.43884 5.21862 25 ft 9 kts 175°
2026-05-07 13:53 43.43836 5.21907 27 ft 8 kts 135°
2026-05-07 13:54 43.43783 5.21980 30 ft 12 kts 136°
2026-05-07 13:54 43.43697 5.22060 33 ft 17 kts 150°
2026-05-07 13:54 43.43583 5.22151 39 ft 19 kts 150°
2026-05-07 13:54 43.43458 5.22252 45 ft 21 kts 150°
2026-05-07 13:55 43.43325 5.22335 52 ft 21 kts 136°
2026-05-07 13:55 43.43216 5.22487 57 ft 23 kts 134°
2026-05-07 13:55 43.43100 5.22653 63 ft 24 kts 133°
2026-05-07 13:55 43.42987 5.22813 71 ft 19 kts 134°
2026-05-07 13:56 43.42896 5.22864 73 ft 10 kts 198°
2026-05-07 13:56 43.42870 5.22844 72 ft 0 kts 216°
2026-05-07 13:57 43.42866 5.22839 72 ft 4 kts 218°
2026-05-07 13:57 43.42826 5.22781 71 ft 11 kts 241°
2026-05-07 13:57 43.42845 5.22666 68 ft 9 kts 315°
2026-05-07 13:57 43.42866 5.22639 67 ft 0 kts 315°
2026-05-07 13:58 43.42909 5.22580 65 ft 32 kts 313°
2026-05-07 13:58 43.43184 5.22188 52 ft 81 kts 314°
2026-05-07 13:58 43.43699 5.21469 28 ft 126 kts 314°
2026-05-07 13:59 43.44397 5.20486 23 ft 160 kts 311°
2026-05-07 13:59 43.45186 5.19398 372 ft 162 kts 311°
2026-05-07 13:59 43.45973 5.18285 796 ft 163 kts 309°
2026-05-07 13:59 43.46727 5.17124 1183 ft 167 kts 307°
2026-05-07 14:00 43.47579 5.15915 1404 ft 181 kts 312°
2026-05-07 14:00 43.48491 5.14669 1748 ft 192 kts 311°
2026-05-07 14:00 43.49495 5.13287 2047 ft 212 kts 312°
2026-05-07 14:00 43.50545 5.11842 2377 ft 214 kts 311°
2026-05-07 14:01 43.51592 5.10400 2689 ft 214 kts 311°
2026-05-07 14:01 43.52669 5.08926 3028 ft 216 kts 311°
2026-05-07 14:01 43.53715 5.07495 3350 ft 214 kts 311°
2026-05-07 14:01 43.54792 5.06034 3683 ft 218 kts 312°
2026-05-07 14:02 43.55946 5.04722 3999 ft 215 kts 330°
2026-05-07 14:02 43.57453 5.04317 4334 ft 232 kts
2026-05-07 14:02 43.59018 5.04797 4672 ft 233 kts 12°
2026-05-07 14:02 43.60567 5.05402 4993 ft 235 kts 12°
2026-05-07 14:03 43.62160 5.06020 5327 ft 246 kts 12°
2026-05-07 14:03 43.63873 5.06689 5658 ft 265 kts 12°
2026-05-07 14:03 43.65650 5.07380 5974 ft 271 kts 12°
2026-05-07 14:03 43.67483 5.08087 6399 ft 271 kts 12°
2026-05-07 14:04 43.69311 5.08794 6825 ft 277 kts 11°
2026-05-07 14:04 43.71128 5.09504 7243 ft 275 kts 11°
2026-05-07 14:04 43.72128 5.09905 7475 ft 272 kts 12°